Isikeli Krishna

Recruteur en chef - Tailevu Naitasiri
13 Févr 2028
Dimanche
Processus

Personnalité

Adaptabilité (13) Ambition (8) Controverse (11) Loyauté (8) Pression (19) Professionnalisme (18) Sportivité (12) Tempérament (15)

Profil

Style d'entraînement Démocratique
Diplôme Continental A
Détermination 1
Gestion des joueurs 5
Motivation 6
Discipline 4
Satisfaction professionnelle
100%
Fatigue
0%
Rôle Recruteur en chef
Salaire 13.6K p/s
Contrat 14.03.2029

Performance

Comportement Bon
Efficacité de l'entraînement
14%
Développement des joueurs
25%
Prévention des blessures
25%
Mise en place tactique
15%

Événements récents

A évalué un joueur maintenant
A évalué un joueur maintenant
A évalué un joueur maintenant
A évalué un joueur maintenant
A évalué un joueur maintenant
A évalué un joueur maintenant
A évalué un joueur maintenant
A évalué un joueur maintenant

Suivi en cours

357
Joueur Club Statut Capacité Confiance Observé Dernière observation Dernier vote
Rustam Nartajiyev Kokand 1912 Actif 90 / 73 40% 5 12.02.2028 -
Cahya Supriadi PSIM Actif 84 / 63 40% 4 11.02.2028 -
Adre Arido Metallurg Actif 65 / 70 40% 7 11.02.2028 -
Erkebūlan Toibekov Taraz Actif 90 / 91 40% 8 11.02.2028 -
Shaxboz Jurayev Mashal Actif 102 / 96 40% 1 11.02.2028 -
Khaled Kamal Ba Actif 94 / 82 40% 7 10.02.2028 -
Niv Tubul Hapoel Kfar Saba Actif 87 / 75 40% 3 10.02.2028 -
Maxim Orazov Akzhaiyk Actif 64 / 68 40% 2 10.02.2028 -
Nadeo Argawinata Persija Actif 84 / 73 40% 3 10.02.2028 -
Raia Irvanza Akzhaiyk Actif 59 / 72 40% 4 10.02.2028 -
Iowane Matanisiga Labasa Actif 48 / 51 40% 5 09.02.2028 -
Owen Lewis Southern United Actif 51 / 62 40% 5 09.02.2028 -
Miswar Saputra Madura United Actif 61 / 63 40% 3 09.02.2028 -
Alexey Baranov Obod Actif 82 / 69 40% 1 09.02.2028 -
Diky Indrayana Madura United Actif 78 / 91 40% 5 08.02.2028 -
Theo Numberi Dewa United Actif 53 / 63 40% 2 08.02.2028 -
Ryan De Vries Waitakere United Actif 56 / 61 40% 3 08.02.2028 -
Fabien Adikiny Okzhetpes Actif 84 / 74 40% 1 08.02.2028 -
Tomás Leuzzi Vegalta Sendai Actif 68 / 80 40% 1 08.02.2028 -
Yamato Naito Ventforet Kofu Actif 105 / 93 40% 11 07.02.2028 -
Seth Clark Sydney FC Actif 73 / 96 40% 7 07.02.2028 -
Igor' Trofimets Aktobe Actif 82 / 89 40% 5 07.02.2028 -
Christian Bracco Hawke's Bay United Actif 95 / 93 40% 5 07.02.2028 -
Kauã Rodrigo Macarthur FC Actif 89 / 87 40% 4 07.02.2028 -
Nūrbergen Nūrbol Zhetysu Actif 88 / 88 40% 3 06.02.2028 -
Dostonbek To'xtaboyev Mashal Actif 84 / 85 40% 3 06.02.2028 -
Sardor Tukhtasinov Obod Actif 84 / 80 40% 3 06.02.2028 -
James Hilton Macarthur FC Actif 68 / 89 40% 5 05.02.2028 -
Behruz Soatov Rewa Actif 68 / 69 40% 6 04.02.2028 -
Reuben Otieno Neftchi Actif 66 / 88 40% 3 04.02.2028 -
Usman Sadiq Lokomotiv Actif 98 / 82 40% 4 03.02.2028 -
Callum McCowatt WaiBOP United Actif 54 / 59 40% 1 03.02.2028 -
Chris Van Hattum Southern United Actif 72 / 77 40% 1 03.02.2028 -
Rawaf Al-Mallah Bali United Actif 59 / 68 40% 1 03.02.2028 -
Saidu Lawan Dewa United Actif 83 / 77 40% 6 02.02.2028 -
Göktan Cörüt Gamba Osaka Actif 62 / 67 40% 1 02.02.2028 -
Wahyudi Hamisi Persijap Actif 78 / 87 40% 1 01.02.2028 -
Ido Vayer Hapoel Kiryat Shmona Actif 85 / 103 40% 1 01.02.2028 -
Sairusi Nalaubu Lautoka Actif 72 / 81 40% 10 31.01.2028 -
Joe Lacey Sydney FC Actif 83 / 80 40% 2 31.01.2028 -
Tommy Barbarouses Waitakere United Actif 74 / 59 40% 1 31.01.2028 -
Masahito Ono Nagoya Grampus Actif 69 / 82 40% 2 30.01.2028 -
Mxolisi Bhengu Kokand 1912 Actif 85 / 84 40% 1 30.01.2028 -
Al-Zahri Atyrau Actif 88 / 89 40% 7 29.01.2028 -
Abongwe Newman Lautoka Actif 75 / 82 40% 6 29.01.2028 -
Raka Cahyana PSIM Actif 57 / 53 40% 4 25.01.2028 -
Rosyad Setiawan Semen Padang Actif 90 / 72 40% 2 25.01.2028 -
Muhammadjon Valiyev Nasaf Actif 92 / 72 40% 5 24.01.2028 -
Valentín Morelini Bhayangkara Presisi Actif 63 / 59 40% 3 24.01.2028 -
Lachie Charles Maccabi Netanya Actif 65 / 87 40% 6 24.01.2028 -
Shohruh Eshbo'tayev Shortan Actif 86 / 95 40% 2 24.01.2028 -
Mayed Muhsin Atyrau Actif 71 / 90 40% 2 23.01.2028 -
George Plusnin Brisbane Roar Actif 81 / 80 40% 15 21.01.2028 -
Jake Barbarouses Canterbury United Actif 55 / 52 40% 1 21.01.2028 -
Junior Mpanza Arema Actif 68 / 69 40% 9 20.01.2028 -
Gavin Kwan Adsit Borneo Actif 68 / 79 40% 8 20.01.2028 -
Talgat Nurgaliev Akzhaiyk Actif 106 / 75 40% 1 20.01.2028 -
Kishan Sami Ba Actif 69 / 61 40% 2 19.01.2028 -
Matías Nicosia Central Coast Mariners Actif 90 / 80 40% 2 19.01.2028 -
Rifky Dwi Septiawan Persita Actif 60 / 78 40% 1 19.01.2028 -
Cyrus Margono Persija Actif 86 / 86 40% 1 19.01.2028 -
Mohir Komilov AGMK Actif 60 / 88 40% 1 19.01.2028 -
Daniel Cohen Maccabi Netanya Actif 73 / 62 40% 2 18.01.2028 -
Jahongir Mamatqulov Qizilqum Actif 81 / 88 40% 14 17.01.2028 -
Orlando Thorpe Nasaf Actif 72 / 82 40% 1 17.01.2028 -
Danil Podymskii Zhetysu Actif 96 / 66 40% 2 11.01.2028 -
Víctor Barona Melbourne City Actif 86 / 87 40% 3 10.01.2028 -
Maicon Silva Semen Padang Actif 50 / 66 40% 6 10.01.2028 -
Fortune Omoto Semen Padang Actif 75 / 86 40% 1 09.01.2028 -
Chinedu Godspower PSM Actif 58 / 73 40% 1 09.01.2028 -
Bernard Bukari Macarthur FC Actif 67 / 70 40% 3 08.01.2028 -
Rendy Oscario Semen Padang Actif 90 / 80 40% 1 08.01.2028 -
Isikeli Sevanaia Rewa Actif 72 / 74 40% 5 07.01.2028 -
Yance Sayuri Maluku Utara United Actif 75 / 78 40% 3 07.01.2028 -
Omar Suqrat Atyrau Actif 55 / 85 40% 1 06.01.2028 -
Sam Tuiloma Waitakere United Actif 47 / 63 40% 2 05.01.2028 -
Kristian Popovic Central Coast Mariners Actif 98 / 91 40% 1 05.01.2028 -
Joela Biuvanua Lautoka Actif 48 / 72 40% 10 04.01.2028 -
Aporosa Yada Labasa Actif 56 / 65 40% 4 04.01.2028 -
Noah Nelson Hawke's Bay United Actif 67 / 78 40% 4 04.01.2028 -
Tzuri Zeituni Maccabi Netanya Actif 72 / 86 40% 3 03.01.2028 -
Kamronbek Hamroyev Mashal Actif 90 / 64 40% 3 02.01.2028 -
Ibroxim Numonov Bukhara Refusé 90 / 94 40% 18 02.01.2028 Refuser
Yanis Hénin Bunyodkor Actif 113 / 96 40% 3 02.01.2028 -
Sūltan Shymyrkhan Shakhter Actif 76 / 79 40% 7 01.01.2028 -
Frets Butuan Maluku Utara United Actif 53 / 67 40% 9 01.01.2028 -
Luka Marijanović Wellington Phoenix Actif 51 / 67 40% 1 01.01.2028 -
Avazxon Mamatxo'jayev Mashal Actif 82 / 73 40% 1 01.01.2028 -
Atonio Tuivuna Lautoka Actif 76 / 55 40% 4 31.12.2027 -
César Ayón Brisbane Roar Actif 90 / 91 40% 2 31.12.2027 -
Sūltan Būsyrmanov Tobol Actif 93 / 82 40% 5 29.12.2027 -
Sherzodbek Abduraimov Shortan Actif 105 / 76 40% 3 29.12.2027 -
Aphile Ngobese Aktobe Actif 97 / 72 40% 5 28.12.2027 -
Tevita Ravia Nadi Actif 52 / 52 40% 2 28.12.2027 -
Mohamed Mouaataz Khenniche Bunyodkor Actif 67 / 97 40% 15 27.12.2027 -
Mark Isozaki Omiya Ardija Actif 79 / 75 40% 21 27.12.2027 -
Benard Mundi Akzhaiyk Actif 103 / 85 40% 2 27.12.2027 -
Suhrob Eshboyev Qizilqum Actif 95 / 80 40% 3 25.12.2027 -
Farruhjon Qodirov Bukhara Actif 98 / 69 40% 5 25.12.2027 -
Haruna Attah AGMK Actif 82 / 88 40% 1 25.12.2027 -
Kayne Razmovski Rewa Actif 81 / 71 40% 15 24.12.2027 -
Ibrahim Adel Sydney FC Actif 77 / 96 40% 1 24.12.2027 -
Deklan Wood Waitakere United Actif 67 / 73 40% 3 21.12.2027 -
Lucas Urán Sydney FC Actif 86 / 98 40% 21 20.12.2027 -
Joel Valdemarín Omiya Ardija Actif 92 / 81 40% 10 19.12.2027 -
Oscar Fryer Newcastle Jets Refusé 112 / 102 40% 5 19.12.2027 Refuser
Jayson Nettey Hapoel Kfar Saba Actif 79 / 61 40% 3 17.12.2027 -
Callum De Vries WaiBOP United Actif 75 / 61 40% 1 17.12.2027 -
Febri Hariyadi Persis Actif 67 / 86 40% 1 17.12.2027 -
Ryan Boxall Canterbury United Actif 75 / 96 40% 4 16.12.2027 -
Tevita Waranaivalu Rewa Actif 69 / 65 40% 8 15.12.2027 -
Tuiba Batiratu Nadi Actif 57 / 51 40% 3 15.12.2027 -
Muslimbek Habibullayev Navbahor Refusé 90 / 92 40% 6 15.12.2027 Refuser
Hesham Shaaban Maccabi Haifa Actif 63 / 90 40% 1 15.12.2027 -
Khulekani Kubheka PSIM Actif 104 / 98 40% 3 13.12.2027 -
Muhannad Barah Okzhetpes Actif 59 / 68 40% 11 13.12.2027 -
Abdullah Al-Bahri Aktobe Actif 44 / 55 40% 2 12.12.2027 -
Milai Perrot Dewa United Actif 39 / 47 40% 1 12.12.2027 -
Zainal Ali Navua Actif 52 / 61 40% 3 11.12.2027 -
Vladimir Vomenko Okzhetpes Actif 68 / 86 40% 1 11.12.2027 -
Oussama Fatmi Lautoka Actif 97 / 95 40% 12 08.12.2027 -
Fitrul Dwi Rustapa Bali United Actif 94 / 70 40% 5 08.12.2027 -
Brandon Comley Hapoel Raanana Actif 108 / 99 40% 3 07.12.2027 -
Ryan Kurnia Bhayangkara Presisi Actif 61 / 58 40% 2 07.12.2027 -
Ilham Udin Armayn PSBS Biak Actif 69 / 68 40% 6 06.12.2027 -
Ilaisa Vulimainavuso Labasa Actif 44 / 70 40% 4 05.12.2027 -
Stanislav Samoilov Zhetysu Actif 94 / 64 40% 1 05.12.2027 -
Oliver Evans Perth Glory Actif 76 / 101 40% 7 04.12.2027 -
Hassan El Hattab Team Wellington Actif 81 / 88 40% 6 04.12.2027 -
Abdumavlon Abdujalilov Bunyodkor Actif 112 / 104 40% 3 04.12.2027 -
Oscar Page Brisbane Roar Actif 75 / 86 40% 11 02.12.2027 -
Patrick Joseph Ba Actif 50 / 78 40% 5 02.12.2027 -
Ashnil Raju Labasa Actif 44 / 47 40% 2 02.12.2027 -
Darold Kakasi Ba Actif 46 / 65 40% 8 30.11.2027 -
Mohammed Alam Lautoka Actif 50 / 50 40% 4 29.11.2027 -
Asilbek No'monov Nasaf Actif 91 / 64 40% 14 27.11.2027 -
Valijon Rahimov Navbahor Actif 94 / 104 40% 2 27.11.2027 -
Owen Lockyer Waitakere United Actif 53 / 62 40% 3 25.11.2027 -
Andrian Casvari Arema Actif 52 / 75 40% 7 24.11.2027 -
Mirjalol Jumayev Shortan Actif 108 / 90 40% 1 24.11.2027 -
Jai Ajanović Central Coast Mariners Actif 83 / 97 40% 1 24.11.2027 -
Habibi Jusuf Borneo Actif 46 / 75 40% 7 23.11.2027 -
Chukwubuike Martin Bali United Actif 55 / 56 40% 2 23.11.2027 -
Achmad Iqbal Bachtiar Semen Padang Actif 55 / 75 40% 1 21.11.2027 -
Gianluca Pandeynuwu Persis Actif 78 / 65 40% 2 19.11.2027 -
Ido Zavaro Beitar Jerusalem Actif 74 / 92 40% 1 19.11.2027 -
Rocky Junior Nadi Actif 62 / 55 40% 5 16.11.2027 -
Rendy Razzaqu Madura United Actif 56 / 43 40% 3 15.11.2027 -
Kou Gotou Shakhter Actif 92 / 73 40% 9 15.11.2027 -
Ergash Ismoilov Mashal Actif 88 / 92 40% 1 14.11.2027 -
Jolame Domonikibau Rewa Actif 37 / 52 40% 3 11.11.2027 -
Ali Mekawir Navua Actif 58 / 75 40% 17 09.11.2027 -
Owen Kirwan Waitakere United Actif 62 / 78 40% 1 09.11.2027 -
Samandar Toirov Nasaf Actif 59 / 60 40% 4 08.11.2027 -
Yacob Sayuri Maluku Utara United Actif 56 / 92 40% 4 03.11.2027 -
Yuda Editya Madura United Actif 54 / 85 40% 9 02.11.2027 -
Chinanu Victor Rewa Actif 77 / 71 40% 8 02.11.2027 -
Ilay Altman Maccabi Petach Tikva Actif 69 / 84 40% 1 01.11.2027 -
Isroiljon Tursunboyev Metallurg Actif 54 / 64 40% 3 30.10.2027 -
Ozodbek Marufov Nadroga Actif 68 / 67 40% 9 29.10.2027 -
Amir Hasanov Obod Actif 48 / 58 40% 1 28.10.2027 -
Irham Nadzhofa Persija Actif 33 / 47 40% 2 27.10.2027 -
Amit Harel Bnei Yehuda Actif 47 / 81 40% 3 26.10.2027 -
Abdulaziz Al-Hadhood Okzhetpes Actif 56 / 71 40% 3 24.10.2027 -
Akam Moses PSIM Actif 50 / 85 40% 9 24.10.2027 -
Israel Monga Adelaide United Actif 67 / 87 40% 4 23.10.2027 -
Guy Bar Hapoel Tel Aviv Actif 50 / 62 40% 2 23.10.2027 -
Frans Deli Auckland FC Actif 80 / 93 40% 2 22.10.2027 -
Andrei Smolov Obod Actif 64 / 90 40% 1 22.10.2027 -
Jake Garbett Southern United Actif 44 / 68 40% 1 22.10.2027 -
Baktiyor Shomko Akzhaiyk Actif 47 / 57 40% 2 21.10.2027 -
Yoav Dejaldeti Bnei Yehuda Actif 69 / 91 40% 5 17.10.2027 -
Regont Murati Auckland City Actif 86 / 69 40% 9 16.10.2027 -
Brian Micceli Avispa Fukuoka Actif 94 / 84 40% 1 16.10.2027 -
Syahrul Trisna Borneo Actif 80 / 86 40% 2 15.10.2027 -
Michael Barbarouses Hawke's Bay United Actif 51 / 55 40% 3 15.10.2027 -
Yonatan Shani Hapoel Beer Sheva Actif 81 / 73 40% 5 13.10.2027 -
Misiwani Nairube Ba Actif 37 / 41 40% 4 13.10.2027 -
Raheem Nugraha Ba Actif 48 / 55 40% 2 11.10.2027 -
Armando Oropa Semen Padang Actif 64 / 52 40% 2 11.10.2027 -
Etonia Dogalau Ba Actif 58 / 51 40% 4 10.10.2027 -
Stefan McCowatt Hawke's Bay United Actif 89 / 68 40% 9 09.10.2027 -
Anthony Didulica Perth Glory Actif 85 / 82 40% 4 08.10.2027 -
Cristian Toledo Brisbane Roar Actif 86 / 107 40% 3 08.10.2027 -
Muhamad Riyandi Dewa United Actif 62 / 81 40% 4 07.10.2027 -
Gavriil Chizhov Akzhaiyk Actif 95 / 96 40% 1 07.10.2027 -
Miroslav Lobantsev Okzhetpes Actif 81 / 95 40% 1 06.10.2027 -
Teuku Ichsan Bhayangkara Presisi Actif 72 / 71 40% 1 30.09.2027 -
Ryan Barbarouses Canterbury United Actif 57 / 56 40% 3 24.09.2027 -
Farel Putra Wardani Semen Padang Actif 57 / 46 40% 3 22.09.2027 -
G'anisher Qodirov Shortan Actif 84 / 84 40% 6 21.09.2027 -
Arian Pardo Adelaide United Actif 87 / 99 40% 3 21.09.2027 -
Kasim Botan PSIM Actif 65 / 82 40% 1 21.09.2027 -
Razak Abdullah Sydney FC Actif 69 / 75 40% 1 18.09.2027 -
Sanzhar Rahmatilia Taraz Actif 40 / 67 40% 1 18.09.2027 -
Tim Stamatelopoulos Canterbury United Actif 82 / 88 40% 1 15.09.2027 -
Wonderson Yakubu Hapoel Raanana Actif 99 / 84 40% 13 14.09.2027 -
Daiki Hotta Vegalta Sendai Actif 81 / 102 40% 3 10.09.2027 -
Azat Nurgaliev Akzhaiyk Actif 87 / 81 40% 1 10.09.2027 -
Luke Vickery Macarthur FC Actif 81 / 83 40% 24 09.09.2027 -
Christopher Wasasala Labasa Actif 56 / 65 40% 5 08.09.2027 -
Zane Helweh Macarthur FC Actif 80 / 98 40% 15 07.09.2027 -
Atunaisa Naucukidi Lautoka Actif 38 / 42 40% 1 06.09.2027 -
Marcel Vergara Sydney FC Actif 91 / 89 40% 2 28.08.2027 -
Steward Toata Nadroga Actif 44 / 57 40% 2 21.08.2027 -
Zakhar Porokh Okzhetpes Actif 75 / 92 40% 2 20.08.2027 -
Yofandani Pranata Dewa United Actif 54 / 49 40% 2 09.08.2027 -
Shivam Naidu Lautoka Actif 46 / 48 40% 2 09.08.2027 -
Rakan Al-Kaabi PSBS Biak Actif 40 / 71 40% 3 03.08.2027 -
Murodjon Komilov Kokand 1912 Actif 71 / 93 40% 1 03.08.2027 -
Sheva Sanggasi Persijap Actif 52 / 70 40% 5 02.08.2027 -
Oliver Dragićević Melbourne Victory Actif 97 / 80 40% 4 31.07.2027 -
Takumi Yasuno Vegalta Sendai Actif 82 / 89 40% 6 31.07.2027 -
Adi Satryo Arema Actif 66 / 79 40% 6 24.07.2027 -
Aqil Savik Bhayangkara Presisi Actif 83 / 81 40% 6 22.07.2027 -
Ben Cacace Hawke's Bay United Actif 65 / 73 40% 1 22.07.2027 -
Ady Setiawan Dewa United Actif 72 / 84 40% 1 17.07.2027 -
Dafa Setiawarman Dewa United Actif 64 / 51 40% 1 15.07.2027 -
Fabian Talladira Adelaide United Actif 89 / 91 40% 6 11.07.2027 -
Richard Nkomo Newcastle Jets Actif 85 / 86 40% 6 11.07.2027 -
Daichi Suzuki Sagan Tosu Actif 75 / 67 40% 3 05.07.2027 -
Yuval Kretzo Maccabi Petach Tikva Actif 59 / 68 40% 3 03.07.2027 -
Heri Susanto PSBS Biak Actif 85 / 66 40% 8 03.07.2027 -
Toshikazu Teruuchi Urawa Reds Actif 72 / 96 40% 2 30.06.2027 -
Neemish Prasad Rewa Actif 43 / 74 40% 2 28.06.2027 -
Laisenia Nawalu Nasinu Actif 64 / 47 34% 1 28.06.2027 -
Rusiate Doidoi Labasa Actif 62 / 65 40% 1 26.06.2027 -
Lyle Chatburn Auckland City Actif 70 / 74 40% 5 20.06.2027 -
Yanir Nimni Hapoel Kfar Saba Actif 55 / 55 40% 1 20.06.2027 -
Or Yitzhak Bnei Yehuda Actif 97 / 88 40% 3 18.06.2027 -
Joji Vuakaca Labasa Actif 61 / 56 40% 2 16.06.2027 -
O'ktamjon Abdumalikov Kokand 1912 Actif 53 / 91 40% 4 15.06.2027 -
Raymond Matlamela Rewa Actif 85 / 69 40% 3 10.06.2027 -
Make Aldo Maulidino PSIM Actif 54 / 75 40% 5 09.06.2027 -
Alex Nunes Newcastle Jets Actif 93 / 89 40% 4 08.06.2027 -
Zach Lisolajski Melbourne City Actif 88 / 101 40% 2 07.06.2027 -
Ricky Kambuaya Dewa United Actif 65 / 91 40% 2 06.06.2027 -
Pablo Martínez Brisbane Roar Actif 68 / 65 40% 2 02.06.2027 -
Riley Dalziell Auckland FC Actif 92 / 87 40% 2 01.06.2027 -
Wataru Kamijo Sydney FC Actif 76 / 77 40% 17 30.05.2027 -
Ryan Kalms Melbourne City Actif 64 / 83 40% 1 29.05.2027 -
Ben van Dorssen Ba Actif 60 / 69 40% 1 29.05.2027 -
Jovilisi Borisi Navua Actif 62 / 52 40% 1 28.05.2027 -
Joshua Inserra Melbourne Victory Actif 91 / 89 40% 2 27.05.2027 -
Yehonatan Segev Maccabi Petach Tikva Actif 46 / 56 40% 1 26.05.2027 -
Harel Goldenberg Hapoel Kiryat Shmona Actif 76 / 90 40% 2 25.05.2027 -
Noah McCann Central Coast Mariners Actif 85 / 83 40% 2 25.05.2027 -
Jack Warshawsky Melbourne Victory Actif 103 / 104 40% 1 25.05.2027 -
Ahmad Nur Hardianto Persita Actif 76 / 64 40% 5 24.05.2027 -
Sitiveni Rakai Labasa Actif 53 / 49 40% 2 24.05.2027 -
Dony Tri Pamungkas Persija Actif 93 / 86 40% 2 20.05.2027 -
Ahmed Wahid Auckland FC Actif 92 / 79 40% 2 18.05.2027 -
Tomás Olivarez Newcastle Jets Actif 76 / 94 40% 1 17.05.2027 -
Jack Wale Navua Actif 51 / 56 40% 3 11.05.2027 -
Oran Shoval Beitar Jerusalem Actif 55 / 65 40% 1 10.05.2027 -
Akeimi Ralulu Labasa Actif 42 / 72 40% 3 09.05.2027 -
Will McKay Macarthur FC Actif 66 / 86 40% 3 07.05.2027 -
Diyorbek To'laboyev Nasaf Actif 36 / 51 40% 2 05.05.2027 -
Daiki Sakata Bnei Yehuda Actif 81 / 81 40% 1 05.05.2027 -
Samuel Navoce Labasa Actif 48 / 53 40% 2 03.05.2027 -
Shivam Shandil Nasinu Actif 45 / 48 40% 1 03.05.2027 -
Hafizh Rizkianur Persija Actif 46 / 53 40% 2 29.04.2027 -
Andrei Alba Persis Actif 96 / 88 40% 3 28.04.2027 -
Manuel Aguilar Melbourne City Actif 67 / 76 40% 1 28.04.2027 -
Nematulloh Rustamjonov Andijon Actif 70 / 95 40% 1 26.04.2027 -
Asilbek Tojiddinov Andijon Actif 48 / 63 40% 2 24.04.2027 -
Sutanto Tan Persis Actif 61 / 87 40% 8 24.04.2027 -
Jackson Izquierdo Jubilo Iwata Actif 46 / 44 40% 2 24.04.2027 -
Mishal Saad Hapoel Raanana Actif 64 / 78 40% 3 21.04.2027 -
Iran Madura United Actif 90 / 62 40% 1 21.04.2027 -
Diego García Adelaide United Actif 73 / 78 40% 1 20.04.2027 -
Tiago Quintal Sydney FC Actif 85 / 102 40% 3 16.04.2027 -
Jayden Smith Wellington Phoenix Actif 86 / 77 40% 3 15.04.2027 -
Setareki Hughes Rewa Actif 51 / 63 40% 2 14.04.2027 -
Ginanjar Wahyu Bhayangkara Presisi Actif 46 / 80 40% 5 13.04.2027 -
Mourad Kaaouach Persik Actif 85 / 95 40% 1 09.04.2027 -
Ahmad Noviandani Madura United Actif 69 / 72 40% 6 07.04.2027 -
Muhammad Isa PSBS Biak Actif 52 / 79 40% 2 04.04.2027 -
Ben Mewett Western Sydney Wanderers Actif 67 / 70 40% 2 04.04.2027 -
Eiji Shirai Albirex Niigata Actif 104 / 66 40% 1 03.04.2027 -
Ulug'bek Sunnatov Shortan Actif 73 / 81 40% 2 02.04.2027 -
Lucas Scicluna Perth Glory Actif 86 / 86 40% 5 31.03.2027 -
Hidetoshi Takeda Vegalta Sendai Actif 72 / 92 40% 1 31.03.2027 -
Shohjahon Yorqinboyev Andijon Actif 62 / 80 40% 1 30.03.2027 -
Juan Madjar PSBS Biak Actif 59 / 70 40% 1 29.03.2027 -
Dylan Argüello Bnei Sakhnin Actif 55 / 66 40% 2 28.03.2027 -
Siyabonga Hlengwa Navua Actif 81 / 59 40% 1 28.03.2027 -
Betel Valésio Melbourne City Actif 82 / 83 40% 1 28.03.2027 -
Filipe Baravilala Navua Actif 46 / 71 40% 1 27.03.2027 -
Sitiveni Cavuilagi Lautoka Actif 71 / 58 40% 1 26.03.2027 -
Maximiliano de los Santos Brisbane Roar Actif 72 / 85 40% 2 24.03.2027 -
Kadú Borneo Actif 88 / 77 40% 1 24.03.2027 -
Alan Maluku Utara United Actif 95 / 102 40% 1 24.03.2027 -
Tevita Koroi Ba Actif 55 / 62 40% 1 21.03.2027 -
Alan Ríos Beitar Jerusalem Actif 83 / 77 40% 1 20.03.2027 -
Shota Uchiyama Albirex Niigata Actif 74 / 76 40% 1 17.03.2027 -
Abdul Rahman PSM Actif 55 / 79 40% 2 11.03.2027 -
Nabil Begg Ba Actif 44 / 59 40% 3 08.03.2027 -
Albert Nurullayev Bukhara Actif 43 / 53 40% 2 04.03.2027 -
Jens Raven Bali United Actif 43 / 50 40% 1 03.03.2027 -
Nūraidar Äskerbek Taraz Actif 46 / 65 40% 3 27.02.2027 -
Og'abek Asadov Shortan Actif 40 / 76 40% 1 24.02.2027 -
Ori Hassan Bnei Yehuda Actif 94 / 86 40% 1 21.02.2027 -
Reagan Ogle Melbourne City Actif 83 / 81 40% 3 16.02.2027 -
Tyler Williams Sydney FC Actif 67 / 83 40% 1 15.02.2027 -
Epeli Leiroti Lautoka Actif 52 / 51 40% 1 15.02.2027 -
Luigi Gaspar Brisbane Roar Actif 83 / 73 40% 1 08.02.2027 -
Akmaljon Muzaffarov Qizilqum Actif 49 / 61 40% 1 08.02.2027 -
Miras Zhaqsymbetov Taraz Actif 70 / 93 40% 2 07.02.2027 -
Leon Kofana Rewa Actif 60 / 61 40% 1 07.02.2027 -
Gabriele Matanisiga Rewa Actif 72 / 61 40% 1 06.02.2027 -
Senirusi Bokini Lautoka Actif 38 / 56 40% 1 06.02.2027 -
Areya Prasad Auckland City Actif 42 / 55 40% 1 05.02.2027 -
Sulton Rahmatov Qizilqum Actif 40 / 60 40% 2 04.02.2027 -
Abdurahmon Sulaymonov Bunyodkor Actif 78 / 54 40% 1 04.02.2027 -
Javohir Iskandarov Ba Perdu 48 / 63 40% 1 31.01.2027 -
Diyorbek Mamadaliyev Mashal Actif 71 / 70 40% 1 31.01.2027 -
Hajime Hidaka Omiya Ardija Actif 90 / 87 40% 1 29.01.2027 -
Miraziz Mahamadaliyev Andijon Actif 43 / 61 40% 2 27.01.2027 -
Adeeb Al-Hassan Nasaf Actif 85 / 58 40% 1 24.01.2027 -
Beniamino Swamy Nadroga Actif 38 / 70 34% 1 18.01.2027 -
Tomás Aguirre Omiya Ardija Actif 77 / 100 40% 1 14.01.2027 -
Rahul Naresh Ba Actif 72 / 56 40% 1 12.01.2027 -
Tony Nair Nadroga Actif 52 / 41 34% 1 11.01.2027 -
Mufdi Iskandar Bhayangkara Presisi Actif 45 / 53 40% 1 10.01.2027 -
Victor Dethan PSM Actif 65 / 65 40% 1 09.01.2027 -
Wahyu Agong Semen Padang Actif 54 / 63 40% 1 09.01.2027 -
Abdul Naviko Nadroga Actif 48 / 53 34% 1 01.01.2027 -
Abdulla Faisal Ordabasy Actif 83 / 65 40% 1 15.12.2026 -
Rafael Andrade Rewa Actif 55 / 63 40% 3 14.12.2026 -
Sota Yokoyama Vegalta Sendai Actif 92 / 74 40% 1 01.12.2026 -
Mohamed Emad Bukhara Actif 88 / 61 40% 1 21.11.2026 -
Shungo Sugiura Nagoya Grampus Actif 104 / 68 40% 1 17.11.2026 -
Shodiyor Shodiboyev Lokomotiv Actif 100 / 80 40% 9 16.11.2026 -
Abdallah Maga Mashal Actif 86 / 69 40% 2 31.10.2026 -
Farruh Toshpo'latov Mashal Actif 65 / 75 40% 2 27.10.2026 -
Muhammadbobur Karimov Shortan Actif 43 / 91 40% 1 17.10.2026 -
Izzatullo Abdulhaqov Mashal Actif 89 / 73 40% 2 15.10.2026 -
Ghulam Fatkur Rachman PSIM Actif 45 / 71 40% 1 09.10.2026 -
Murod Ermatov Mashal Actif 84 / 72 40% 2 04.10.2026 -
Nūrğaini Böribaev Okzhetpes Actif 108 / 76 40% 1 24.09.2026 -
Suhrobjon Parmonqulov Mashal Actif 44 / 51 40% 1 21.09.2026 -
Diyor Rahmatullayev Qizilqum Actif 103 / 98 40% 1 20.09.2026 -
Dilshod Murtazoyev Nasaf Actif 42 / 91 40% 1 12.09.2026 -
Noah Wood WaiBOP United Actif 76 / 79 40% 1 11.09.2026 -
Qobylandy Kamariden Okzhetpes Actif 52 / 61 40% 1 09.09.2026 -
Sena Ishibashi Shonan Bellmare Actif 104 / 92 40% 1 08.09.2026 -
Tohirbek To'xtasinov Sogdiana Actif 85 / 65 40% 1 04.09.2026 -
Jefferson Persis Actif 58 / 73 40% 1 02.09.2026 -
Yoyo Aviv Maccabi Tel Aviv Actif 44 / 54 40% 2 01.09.2026 -
Jaloliddin Sodiqov Navbahor Actif 84 / 86 40% 1 26.08.2026 -
Sherzodbek Abdulboriyev Lokomotiv Actif 94 / 57 40% 1 26.08.2026 -
Jack Brown Persita Actif 50 / 71 40% 1 17.08.2026 -
Richard Monday Ubong Vissel Kobe Actif 48 / 51 40% 1 11.08.2026 -
Deklan Wood Actif 72 / 72 40% 1 11.08.2026 -
Pauliasi Tulivou Nadi Actif 55 / 59 34% 1 10.08.2026 -
Will Freney Perth Glory Actif 83 / 87 40% 1 02.08.2026 -